Location: Sungai Igah
(2.7333°N, 114.2500°E)
Time: 21:22:19
(UTC+00:00)

Centaur AC-42 - Pass Details

Date: 14 June 2021
Orbit: 592 x 36295 km, 20.1° (Epoch: 25 July)

Event Time Altitude Azimuth Distance (km) Brightness Sun altitude
Exits shadow 18:48:52 36° 4° (N) 2,253 4.4 -46.0°
Drops below altitude 10° 19:10:08 10° 67° (ENE) 10,111 8.3 -41.8°
Sets 19:49:32 0° 77° (ENE) 20,689 10.2 -33.5°
